Humidity-temperature Sensor

Selected Measurement Type: Air Temperature

 
Air Temperature [°C]     6 entries per hour
Showing data from 9/9/2018 (00:00:00 Z) to 9/2/2018 (00:01:00 Z)
Previous Next [ Day | 3-Days | 7-Days ]
First Last
Prev [ Day | 3-Days | 7-Days ] Next
First Last

Start Time:     :
End Time:     :     
Time (in GMT) :00 :50 :40 :30 :20 :10
Previous Next [ Day | 3-Days | 7-Days ]
First Last
Prev [ Day | 3-Days | 7-Days ] Next
First Last


123 => good data
MM => data is determined as missing
-- => data not received/configured
Back to Top Back to Top
9/9/2018 00:00 to 23:10 24.52 24.48 24.65 24.40 24.52 24.41
9/8/2018 23:00 to 22:10 24.48 24.35 24.33 24.32 24.36 24.39
9/8/2018 22:00 to 21:10 24.31 24.21 24.24 24.19 24.19 24.14
9/8/2018 21:00 to 20:10 24.08 24.07 24.06 24.12 24.02 24.00
9/8/2018 20:00 to 19:10 23.99 23.95 24.02 23.92 23.95 24.06
9/8/2018 19:00 to 18:10 24.01 23.96 24.03 24.03 23.94 24.01
9/8/2018 18:00 to 17:10 23.96 24.06 24.01 24.09 24.11 23.96
9/8/2018 17:00 to 16:10 24.08 24.18 24.15 24.33 24.20 24.26
9/8/2018 16:00 to 15:10 24.24 24.10 24.39 24.38 24.28 24.01
9/8/2018 15:00 to 14:10 23.99 23.81 23.78 23.77 23.65 23.95
9/8/2018 14:00 to 13:10 23.88 23.87 23.71 23.74 23.87 23.84
9/8/2018 13:00 to 12:10 23.83 23.92 23.80 23.78 23.79 23.75
9/8/2018 12:00 to 11:10 23.74 23.68 23.68 23.61 23.73 23.76
9/8/2018 11:00 to 10:10 23.84 23.90 23.93 23.81 23.64 23.72
9/8/2018 10:00 to 9:10 23.69 23.79 23.61 23.75 23.67 23.83
9/8/2018 09:00 to 8:10 23.69 23.82 23.78 23.78 23.88 23.82
9/8/2018 08:00 to 7:10 23.79 23.82 23.92 23.83 23.86 23.90
9/8/2018 07:00 to 6:10 23.96 24.00 23.83 23.95 23.96 23.83
9/8/2018 06:00 to 5:10 23.93 23.93 24.01 23.99 24.04 23.98
9/8/2018 05:00 to 4:10 24.00 24.06 24.03 24.07 24.06 24.13
9/8/2018 04:00 to 3:10 24.22 24.22 24.20 24.26 24.21 24.27
9/8/2018 03:00 to 2:10 24.25 24.23 24.20 24.34 24.35 24.34
9/8/2018 02:00 to 1:10 24.38 24.33 24.51 24.37 24.41 24.22
9/8/2018 01:00 to 0:10 24.29 24.42 24.27 24.37 24.32 24.46
9/8/2018 00:00 to 23:10 24.41 24.38 24.41 24.33 24.40 24.19
9/7/2018 23:00 to 22:10 24.24 24.38 24.22 24.25 24.36 24.28
9/7/2018 22:00 to 21:10 24.33 24.44 24.35 24.38 24.36 24.32
9/7/2018 21:00 to 20:10 24.49 24.23 24.22 24.28 24.36 24.33
9/7/2018 20:00 to 19:10 24.24 24.41 24.20 24.44 24.50 24.35
9/7/2018 19:00 to 18:10 24.33 24.50 24.60 24.41 24.49 24.41
9/7/2018 18:00 to 17:10 24.50 24.48 24.48 24.63 24.52 24.65
9/7/2018 17:00 to 16:10 24.61 24.68 24.76 24.71 24.55 24.69
9/7/2018 16:00 to 15:10 24.76 24.54 24.37 24.73 24.63 24.44
9/7/2018 15:00 to 14:10 24.52 24.42 24.17 24.19 23.98 24.11
9/7/2018 14:00 to 13:10 24.24 24.27 24.09 24.06 24.28 24.19
9/7/2018 13:00 to 12:10 24.22 24.09 24.06 24.16 24.14 24.14
9/7/2018 12:00 to 11:10 24.20 24.05 24.14 24.09 24.19 24.19
9/7/2018 11:00 to 10:10 24.14 24.32 24.17 24.18 24.35 24.30
9/7/2018 10:00 to 9:10 24.26 24.12 24.45 24.29 24.18 24.24
9/7/2018 09:00 to 8:10 24.32 24.26 24.26 24.38 24.26 24.24
9/7/2018 08:00 to 7:10 24.35 24.39 24.34 24.19 24.20 24.35
9/7/2018 07:00 to 6:10 24.29 24.20 24.22 24.22 24.30 24.31
9/7/2018 06:00 to 5:10 24.22 24.28 24.21 24.30 24.32 24.21
9/7/2018 05:00 to 4:10 24.28 24.35 24.40 24.38 24.30 24.38
9/7/2018 04:00 to 3:10 24.38 24.40 24.37 24.37 24.45 24.53
9/7/2018 03:00 to 2:10 24.45 24.51 24.37 24.41 24.45 24.45
9/7/2018 02:00 to 1:10 24.54 24.57 24.73 24.56 24.48 24.67
9/7/2018 01:00 to 0:10 24.53 24.62 24.50 24.55 24.45 24.49
9/7/2018 00:00 to 23:10 24.44 24.52 24.30 24.38 24.44 24.53
9/6/2018 23:00 to 22:10 24.40 24.35 24.42 24.36 24.37 24.41
9/6/2018 22:00 to 21:10 24.40 24.49 24.40 24.41 24.55 24.48
9/6/2018 21:00 to 20:10 24.42 24.43 24.42 24.45 24.43 24.53
9/6/2018 20:00 to 19:10 24.39 24.36 24.36 24.35 24.38 24.29
9/6/2018 19:00 to 18:10 24.45 24.39 24.51 24.46 24.55 24.38
9/6/2018 18:00 to 17:10 24.55 24.59 24.50 24.50 24.45 24.55
9/6/2018 17:00 to 16:10 24.52 24.65 24.43 24.60 24.52 24.60
9/6/2018 16:00 to 15:10 24.57 24.25 24.41 24.20 24.58 24.46
9/6/2018 15:00 to 14:10 24.23 24.31 24.53 24.18 24.07 24.14
9/6/2018 14:00 to 13:10 24.06 23.91 24.08 23.96 23.96 24.05
9/6/2018 13:00 to 12:10 23.92 24.04 24.21 24.18 24.11 24.03
9/6/2018 12:00 to 11:10 24.18 24.08 23.93 23.96 24.09 24.02
9/6/2018 11:00 to 10:10 23.94 23.99 23.88 23.95 23.89 24.05
9/6/2018 10:00 to 9:10 23.87 23.93 24.01 23.92 23.99 24.11
9/6/2018 09:00 to 8:10 24.04 24.07 24.13 24.11 23.93 24.08
9/6/2018 08:00 to 7:10 24.21 24.19 24.05 24.01 24.12 24.18
9/6/2018 07:00 to 6:10 24.17 24.27 24.11 24.31 24.22 24.15
9/6/2018 06:00 to 5:10 24.24 24.19 24.06 24.17 24.16 24.13
9/6/2018 05:00 to 4:10 24.19 24.30 24.21 24.18 24.19 24.17
9/6/2018 04:00 to 3:10 24.18 24.29 24.15 24.18 24.17 24.21
9/6/2018 03:00 to 2:10 24.09 24.15 24.34 24.11 24.28 24.31
9/6/2018 02:00 to 1:10 24.38 24.32 24.32 24.34 24.49 24.37
9/6/2018 01:00 to 0:10 24.31 24.35 24.25 24.30 24.27 24.24
9/6/2018 00:00 to 23:10 24.21 24.25 24.19 24.11 24.00 24.09
9/5/2018 23:00 to 22:10 24.23 24.14 24.18 24.12 24.18 24.18
9/5/2018 22:00 to 21:10 24.24 24.33 24.12 24.23 24.23 24.23
9/5/2018 21:00 to 20:10 24.23 24.11 24.16 24.18 24.23 24.13
9/5/2018 20:00 to 19:10 24.28 24.12 24.21 24.17 24.14 24.12
9/5/2018 19:00 to 18:10 24.25 24.31 24.23 24.18 24.17 24.22
9/5/2018 18:00 to 17:10 24.36 24.24 24.32 24.35 24.29 24.22
9/5/2018 17:00 to 16:10 24.09 23.94 24.15 24.35 24.29 24.24
9/5/2018 16:00 to 15:10 24.37 24.24 24.45 24.43 24.32 24.33
9/5/2018 15:00 to 14:10 24.09 24.12 23.91 23.78 23.61 23.63
9/5/2018 14:00 to 13:10 23.54 23.57 23.58 23.62 23.43 23.58
9/5/2018 13:00 to 12:10 23.50 23.54 23.57 23.55 23.68 23.63
9/5/2018 12:00 to 11:10 23.58 23.59 23.53 23.51 23.61 23.52
9/5/2018 11:00 to 10:10 23.66 23.60 23.63 23.60 23.59 23.54
9/5/2018 10:00 to 9:10 23.48 23.24 23.77 23.78 23.80 23.72
9/5/2018 09:00 to 8:10 23.73 23.72 23.80 23.77 23.74 23.74
9/5/2018 08:00 to 7:10 23.73 23.85 23.90 23.88 23.94 23.92
9/5/2018 07:00 to 6:10 23.89 23.92 23.96 24.04 23.91 24.06
9/5/2018 06:00 to 5:10 23.98 23.94 23.93 23.98 23.86 24.01
9/5/2018 05:00 to 4:10 23.90 24.08 23.96 24.01 23.84 23.88
9/5/2018 04:00 to 3:10 24.03 23.98 23.92 23.99 24.06 24.05
9/5/2018 03:00 to 2:10 24.04 24.05 24.01 23.98 23.99 23.99
9/5/2018 02:00 to 1:10 23.88 23.98 23.98 24.12 24.03 23.94
9/5/2018 01:00 to 0:10 23.94 24.04 23.99 23.95 23.97 24.03
9/5/2018 00:00 to 23:10 24.13 23.97 24.12 24.00 24.12 24.07
9/4/2018 23:00 to 22:10 23.96 24.14 23.93 24.02 23.94 24.04
9/4/2018 22:00 to 21:10 23.96 23.98 24.01 24.08 24.04 24.05
9/4/2018 21:00 to 20:10 24.09 23.91 23.92 23.94 24.02 23.88
9/4/2018 20:00 to 19:10 24.03 24.01 23.90 23.90 23.88 23.96
9/4/2018 19:00 to 18:10 23.94 24.04 24.02 23.96 23.98 23.98
9/4/2018 18:00 to 17:10 24.08 23.95 24.05 24.13 23.95 24.11
9/4/2018 17:00 to 16:10 24.18 24.14 24.21 24.18 24.27 24.32
9/4/2018 16:00 to 15:10 24.30 24.31 24.21 24.24 24.18 24.15
9/4/2018 15:00 to 14:10 24.05 24.00 23.79 23.69 23.75 23.65
9/4/2018 14:00 to 13:10 23.58 23.61 23.65 23.57 23.60 23.56
9/4/2018 13:00 to 12:10 23.67 23.59 23.55 23.52 23.64 23.61
9/4/2018 12:00 to 11:10 23.70 23.63 23.56 23.61 23.62 23.54
9/4/2018 11:00 to 10:10 23.68 23.54 23.72 23.65 23.80 23.90
9/4/2018 10:00 to 9:10 23.93 23.79 24.05 23.93 23.91 23.93
9/4/2018 09:00 to 8:10 23.81 23.99 23.97 24.11 23.98 23.93
9/4/2018 08:00 to 7:10 23.95 23.93 24.11 24.21 24.16 24.13
9/4/2018 07:00 to 6:10 24.12 24.10 24.11 24.18 24.11 24.17
9/4/2018 06:00 to 5:10 24.06 24.04 24.02 24.15 24.04 24.11
9/4/2018 05:00 to 4:10 24.04 24.09 24.01 24.06 24.22 23.96
9/4/2018 04:00 to 3:10 24.11 24.02 24.17 24.13 24.04 24.08
9/4/2018 03:00 to 2:10 24.01 24.03 23.99 24.00 24.00 24.07
9/4/2018 02:00 to 1:10 24.09 24.08 24.13 24.15 24.19 24.03
9/4/2018 01:00 to 0:10 24.11 24.01 24.21 24.16 24.14 24.03
9/4/2018 00:00 to 23:10 24.13 24.11 24.15 24.13 24.15 24.23
9/3/2018 23:00 to 22:10 24.20 24.26 24.15 24.23 24.15 24.19
9/3/2018 22:00 to 21:10 24.15 24.10 24.02 24.00 23.97 23.99
9/3/2018 21:00 to 20:10 23.94 23.99 24.01 24.05 23.92 24.05
9/3/2018 20:00 to 19:10 24.17 24.04 24.11 24.11 24.17 24.13
9/3/2018 19:00 to 18:10 24.27 24.22 24.31 24.34 24.40 24.46
9/3/2018 18:00 to 17:10 24.28 24.30 24.30 24.26 24.29 24.19
9/3/2018 17:00 to 16:10 24.23 24.20 24.27 24.29 24.32 24.26
9/3/2018 16:00 to 15:10 24.26 24.27 24.32 24.18 24.24 24.21
9/3/2018 15:00 to 14:10 24.07 23.99 23.95 23.76 23.75 23.68
9/3/2018 14:00 to 13:10 23.86 23.79 23.81 23.82 23.76 23.83
9/3/2018 13:00 to 12:10 23.88 23.96 23.92 23.85 23.89 23.94
9/3/2018 12:00 to 11:10 23.84 23.79 23.88 23.91 23.73 23.76
9/3/2018 11:00 to 10:10 23.70 23.85 23.79 23.77 23.73 23.83
9/3/2018 10:00 to 9:10 23.74 23.79 23.83 23.83 23.85 23.85
9/3/2018 09:00 to 8:10 23.75 23.78 23.88 23.95 23.82 23.90
9/3/2018 08:00 to 7:10 23.81 23.95 24.02 24.02 23.93 24.01
9/3/2018 07:00 to 6:10 23.97 24.00 24.08 24.12 24.00 24.15
9/3/2018 06:00 to 5:10 24.09 24.02 24.04 24.02 23.99 24.07
9/3/2018 05:00 to 4:10 24.17 24.15 24.14 24.11 24.11 24.15
9/3/2018 04:00 to 3:10 24.23 24.00 24.17 24.09 24.06 24.23
9/3/2018 03:00 to 2:10 24.08 24.10 24.30 24.22 24.27 24.20
9/3/2018 02:00 to 1:10 24.29 24.40 24.30 24.30 24.54 24.44
9/3/2018 01:00 to 0:10 24.35 24.34 24.26 24.18 24.29 24.30
9/3/2018 00:00 to 23:10 24.30 24.27 24.28 24.28 24.46 24.32
9/2/2018 23:00 to 22:10 24.34 24.31 24.42 24.56 24.48 24.63
9/2/2018 22:00 to 21:10 24.61 24.62 24.39 24.42 24.41 24.18
9/2/2018 21:00 to 20:10 24.00 24.17 24.06 24.35 24.29 24.33
9/2/2018 20:00 to 19:10 24.36 24.29 24.30 24.36 24.14 24.10
9/2/2018 19:00 to 18:10 24.21 24.16 24.16 24.13 24.15 24.25
9/2/2018 18:00 to 17:10 24.21 24.16 24.12 24.22 24.22 24.23
9/2/2018 17:00 to 16:10 24.20 24.25 24.21 24.19 24.13 24.37
9/2/2018 16:00 to 15:10 24.21 24.24 24.30 24.33 24.37 24.14
9/2/2018 15:00 to 14:10 23.96 23.95 23.96 23.77 23.89 23.82
9/2/2018 14:00 to 13:10 23.78 23.84 23.91 23.79 23.92 23.96
9/2/2018 13:00 to 12:10 23.79 23.89 23.80 23.82 23.76 23.84
9/2/2018 12:00 to 11:10 -- -- -- -- -- --
9/2/2018 11:00 to 10:10 23.97 23.93 24.01 24.01 24.00 23.89
9/2/2018 10:00 to 9:10 23.89 23.95 24.00 23.99 24.04 24.11
9/2/2018 09:00 to 8:10 24.00 24.07 24.04 24.11 24.09 24.29
9/2/2018 08:00 to 7:10 24.23 24.23 24.19 24.08 24.30 24.27
9/2/2018 07:00 to 6:10 24.29 24.30 24.31 24.36 24.26 24.06
9/2/2018 06:00 to 5:10 24.29 24.23 24.30 24.36 23.90 24.22
9/2/2018 05:00 to 4:10 24.13 24.11 24.14 23.99 23.85 23.78
9/2/2018 04:00 to 3:10 23.77 23.76 23.89 23.97 24.06 24.05
9/2/2018 03:00 to 2:10 24.14 24.10 24.08 24.10 24.05 24.07
9/2/2018 02:00 to 1:10 24.03 24.06 24.19 24.07 24.04 24.09
9/2/2018 01:00 to 0:10 24.07 24.06 24.06 24.13 24.19 24.08